www.pogodaiklimat.ru

Погода и климат >> Архив погоды >> Иран >> Bandar Deyr


ПОГОДА в Bandar Deyr

  • Прогноз погоды в Bandar Deyr
  • Монитор погоды в Bandar Deyr
  • Климат города

АРХИВ ПОГОДЫ в Bandar Deyr

Время (UTC), дата Ветер
(напр.,м/с)
 
Видим.   Явления Облачность Т
(С)
Тd
(С)
f
(%)
Тe
(С)
Тes
(С)
Комфортность P
(гПа)
Po
(гПа)
Тmin
(С)
Tmax
(С)
R
(мм)
R24
(мм)
S
(см)
09 13.09 Ю 3 6000 м мгла ясно +35.9 +29.0 68 +60 +74 опасность
перегрева
1004.0 1003.5
12 13.09 ЮЗ 3 8000 м мгла ясно +36.0 1003.0 1002.5
15 13.09 ЮЗ 2 6000 м мгла ясно +34.8 +27.2 65 +53 +53 опасность
перегрева
1002.6 1002.1 +36.5
18 13.09 З 1 6000 м мгла ясно +34.0 +26.8 66 +51 +51 опасность
перегрева
1003.2 1002.7
21 13.09 С 1 6000 м мгла ясно +32.7 +25.7 67 +48 +48 опасность
перегрева
1001.6 1001.2
00 14.09 С 2 6000 м мгла ясно +30.5 +24.6 71 +43 +43 опасность
перегрева
1000.9 1000.5
03 14.09 С 1 6000 м мгла ясно +30.2 +24.5 72 +43 +43 опасность
перегрева
1001.8 1001.4 +29.7
06 14.09 штиль 0 6000 м мгла ясно +35.8 1003.0 1002.6
09 14.09 ЮВ 3 6000 м мгла ясно +36.8 +27.3 58 +55 +70 опасность
перегрева
1002.7 1002.3
12 14.09 Ю 4 6000 м мгла ясно +35.6 1002.1 1001.7
15 14.09 штиль 0 5000 м мгла ясно +34.6 +29.0 73 +58 +58 опасность
перегрева
1002.3 1001.8 +37.0
18 14.09 ЮВ 2 4000 м мгла ясно +34.0 +29.7 78 +60 +60 опасность
перегрева
1003.7 1003.3
21 14.09 штиль 0 4000 м дымка ясно +32.8 +29.0 80 +56 +56 опасность
перегрева
1003.4 1002.9
00 15.09 штиль 0 4000 м дымка ясно +30.6 +27.4 83 +49 +49 опасность
перегрева
1002.6 1002.1
03 15.09 штиль 0 4000 м дымка 1/0
[Ac trans]
+30.0 +27.0 84 +47 +48 опасность
перегрева
1003.5 1003.1 +29.2
06 15.09 ЮЗ 1 5000 м мгла ясно +37.5 1004.6 1004.2
09 15.09 Ю 3 6000 м мгла ясно +36.6 +28.9 65 +60 +74 опасность
перегрева
1004.4 1004.0
12 15.09 Ю 3 6000 м мгла ясно +36.2 1003.5 1003.1
15 15.09 ЮВ 1 6000 м мгла ясно +34.5 +28.4 71 +57 +57 опасность
перегрева
1003.5 1003.1 +37.8
18 15.09 штиль 0 6000 м мгла ясно +32.8 +26.1 68 +49 +49 опасность
перегрева
1004.1 1003.7
21 15.09 СЗ 2 6000 м мгла ясно +32.9 +22.5 54 +42 +42 опасность
перегрева
1003.4 1003.0
00 16.09 С 2 6000 м мгла ясно +29.9 +24.2 72 +42 +42 опасность
перегрева
1002.5 1002.1
03 16.09 С 1 6000 м мгла ясно +27.9 +21.1 67 +35 +36 очень
душно
1004.0 1003.5 +27.8
06 16.09 В 2 6000 м пыль ясно +35.4 1006.1 1005.6
09 16.09 Ю 3 6000 м пыль ясно +35.6 +28.9 68 +58 +73 опасность
перегрева
1004.9 1004.4
12 16.09 Ю 3 6000 м мгла ясно +35.6 1003.4 1002.9
15 16.09 Ю 2 6000 м мгла ясно +34.2 +28.2 71 +55 +55 опасность
перегрева
1003.5 1003.0 +35.9
18 16.09 ЮЗ 2 6000 м мгла ясно +33.8 +28.1 72 +55 +55 опасность
перегрева
1003.8 1003.4
21 16.09 С 2 6000 м мгла ясно +32.6 +27.4 74 +51 +51 опасность
перегрева
1003.4 1002.9
00 17.09 С 2 6000 м мгла ясно +31.2 +27.1 79 +49 +49 опасность
перегрева
1002.4 1001.9
03 17.09 С 2 6000 м мгла ясно +30.6 +26.7 80 +48 +48 опасность
перегрева
1003.5 1003.0 +30.2
06 17.09 В 1 6000 м мгла ясно +34.2 1004.6 1004.1
09 17.09 Ю 4 6000 м мгла ясно +34.8 +29.1 72 +58 +70 опасность
перегрева
1003.8 1003.3
12 17.09 Ю 3 6000 м мгла ясно +35.0 1002.9 1002.4
15 17.09 Ю 2 6000 м мгла ясно +33.7 +27.9 72 +54 +54 опасность
перегрева
1002.6 1002.1 +35.3
18 17.09 ЮВ 2 6000 м мгла ясно +33.5 +27.8 72 +54 +54 опасность
перегрева
1003.6 1003.1
21 17.09 С 1 6000 м мгла ясно +32.2 +27.3 75 +51 +51 опасность
перегрева
1002.9 1002.4
03 18.09 С 2 5000 м дымка ясно +29.6 +26.2 82 +45 +45 опасность
перегрева
1004.6 1004.1 +29.6
06 18.09 штиль 0 5000 м мгла ясно +34.4 1006.6 1006.1
09 18.09 Ю 4 6000 м мгла ясно +35.8 +28.0 64 +56 +68 опасность
перегрева
1005.6 1005.1
12 18.09 Ю 4 7000 м мгла ясно +36.2 1004.4 1003.9
15 18.09 Ю 2 8000 м мгла ясно +34.6 +26.7 64 +52 +52 опасность
перегрева
1004.6 1004.2 +36.4
18 18.09 штиль 0 8000 м мгла ясно +33.4 +27.1 70 +52 +52 опасность
перегрева
1006.2 1005.7
21 18.09 штиль 0 8000 м мгла ясно +32.0 +25.9 70 +47 +47 опасность
перегрева
1005.3 1004.9
00 19.09 С 2 8000 м мгла ясно +30.0 +24.0 70 +41 +41 опасность
перегрева
1004.9 1004.4
03 19.09 С 2 7000 м мгла ясно +29.0 +23.2 71 +39 +39 очень
душно
1006.4 1005.9 +29.0
06 19.09 Ю 1 7000 м мгла ясно +36.6 1007.6 1007.2
09 19.09 ЮВ 5 7000 м мгла ясно +36.3 +28.2 63 +57 +66 опасность
перегрева
1006.5 1006.1
12 19.09 Ю 5 7000 м мгла ясно +35.1 1004.9 1004.5
15 19.09 Ю 2 7000 м мгла ясно +33.9 +28.2 72 +55 +55 опасность
перегрева
1004.8 1004.4 +37.0
18 19.09 СЗ 1 7000 м мгла ясно +33.3 +27.9 73 +53 +53 опасность
перегрева
1005.2 1004.8
21 19.09 СЗ 1 7000 м мгла ясно +31.7 +27.1 77 +50 +50 опасность
перегрева
1004.8 1004.4
00 20.09 СВ 1 7000 м пыль ясно +30.5 +26.5 79 +47 +47 опасность
перегрева
1004.3 1003.9
03 20.09 СЗ 2 6000 м дымка ясно +30.2 +26.4 80 +46 +46 опасность
перегрева
1004.6 1004.1 +29.8
06 20.09 Ю 2 6000 м мгла ясно +33.8 1005.9 1005.4

 

Местоположение метеостанции Bandar Deyr (Иран): широта 27.83 долгота 51.93 высота над уровнем моря 4 м.

В архиве по умолчанию представлена погода в Bandar Deyr за последнюю неделю. Архивные данные за месяц целиком и за предыдущие месяцы, начиная с января 2011 года, Вы можете получить, выбрав интересующий диапазон дат из раскрывающегося списка и нажав кнопку "Ввод!".


*Определитесь, кто Вы:
робот инопланетянин человек

Внимание! Время в таблицах - всемирное. Для получения местного времени необходимо прибавить поправку, которая в Bandar Deyr равна 3.5 ч.

Смотрите также архив погоды в соседних городах и на ближайших метеорологических станциях:

Погода в Bushehr (Иран) (163 км)
Погода в Bushehr Airport (Иран) (167 км)
Погода в Shiraz (Иран) (198 км)
Погода в Fasa (Иран) (213 км)
Погода в Bahrain (Бахрейн) (215 км)
Погода в Khark (Иран) (224 км)
Погода в Dhahran (Саудовская Аравия) (246 км)
Погода в Kish Island (Иран) (251 км)
Погода в King Fahd Int Airport (Саудовская Аравия) (259 км)
Погода в Hamad Int Airport (Катар) (287 км)

Пояснения к столбцам:

Ветер - указаны скорость ветра в м/с - средняя за 10 мин, порывы в срок и между сроками (в фигурных скобках) и направление, откуда дует ветер: С - северный, СВ - северо-восточный, В - восточный, ЮВ - юго-восточный, Ю - южный, ЮЗ - юго-западный, З - западный, СЗ - северо-западный.
Видимость - горизонтальная дальность видимости в метрах или километрах. При видимости от 1 до 10 км при отсутствии осадков обычно наблюдается дымка, при ухудшении видимости до 1 км и менее - туман. В сухую погоду видимость может ухудшаться дымом, пылью или мглою.
Явления - указаны атмосферные явления, наблюдавшиеся в срок или в последний час перед сроком; фигурными скобками обозначены явления, наблюдавшиеся между сроками (за 1-3 часа до срока); квадратными скобками обозначены град или гололедные отложения с указанием их диаметра в мм.
Облачность - указаны через наклонную черту общая и нижняя облачность в баллах и высота нижней границы облаков в метрах; квадратными скобками обозначены формы облаков: Ci - перистые, Cs - перисто-слоистые, Cc - перисто-кучевые, Ac - высококучевые, As - высокослоистые, Sc - слоисто-кучевые, Ns - слоисто-дождевые, Cu - кучевые, Cb - кучево-дождевые. Подробнее классификацию облаков см. в Атласе облаков (PDF).
T - Температура воздуха - температура, измеренная на высоте 2 м над землей.
Td - Температура точки росы - температура, при понижении до которой содержащийся в воздухе водяной пар достигнет насыщения.
f - Относительная влажность воздуха - влажноcть воздуха, измеренная на высоте 2 м над землей.
Te - Эффективная температура - температура, которую ощущает одетый по сезону человек в тени. Характеристика душности погоды. При расчете учитывается влияние влажности воздуха и скорости ветра на теплоощущения человека.
Tes - Эффективная температура на солнце - температура, которую ощущает человек, с поправкой на солнечный нагрев. Характеристика знойности погоды. Зависит от высоты солнца над горизонтом, облачности и скорости ветра. Ночью, в пасмурную погоду, а также при ветре 12 м/с и более поправка равна нулю.
P - Атмосферное давление - приведенное к уровню моря атмосферное давление.
Po - Атмосферное давление - измеренное на уровне метеостанции атмосферное давление.
Tmin - Минимальная температура - минимум температуры воздуха на высоте 2 м над землей.
Tmax - Максимальная температура - максимум температуры воздуха на высоте 2 м над землей.
R - Количество осадков - Количество выпавших осадков за период времени, мм. При наведении курсора мыши на число - период времени, за который выпало указанное количество осадков.
R24 - Количество осадков - Количество выпавших осадков за 24 часа, мм.
S - Снежный покров - Высота снежного покрова, см. При наведении курсора мыши на число - состояние снежного покрова и степень покрытия местности в баллах.